カタログに戻る

STARLINK-1225

運用中通信VLEO
NORAD 45187·PAYLOAD·🇺🇸 United States

打ち上げ Feb 17, 2020 から Cape Canaveral Space Force Station

Loading…

次のパス (今後24時間)

TLE

最新Source: CelesTrak SupGP

元期: Sep 14, 2026, 21:27 UTC

1 45187C 20012K   26257.89423611  .00075395  00000+0  16899-2 0  2576
2 45187  53.1520 233.5372 0001619  78.0618 358.4562 15.42803549    10

AllMySatでSTARLINK-1225をリアルタイム追跡

Download on the App Store